Hourly Weather Ruda-Koltivs'ka

Today, 10 April, Saturday

Time Temperature Precipitation Wind Pressure Humidity
00:00 +2°C° 0 mm 3 mps 741 mmHg 63%
01:00 +1°C° 0 mm 3 mps 741 mmHg 65%
02:00 +1°C° 0 mm 3 mps 740 mmHg 67%
03:00 +1°C° 0 mm 3 mps 740 mmHg 66%
04:00 +1°C° 0 mm 3 mps 740 mmHg 65%
05:00 0°C° 0 mm 4 mps 740 mmHg 65%
06:00 +1°C° 0 mm 4 mps 740 mmHg 62%
07:00 +3°C° 0 mm 4 mps 740 mmHg 60%
08:00 +3°C° 0 mm 5 mps 740 mmHg 58%
09:00 +6°C° 0 mm 5 mps 740 mmHg 54%
10:00 +8°C° 0 mm 6 mps 740 mmHg 50%
11:00 +9°C° 0 mm 6 mps 740 mmHg 47%
12:00 +10°C° 0 mm 6 mps 740 mmHg 46%
13:00 +11°C° 0 mm 6 mps 739 mmHg 45%
14:00 +13°C° 0 mm 5 mps 739 mmHg 44%
15:00 +13°C° 0 mm 5 mps 739 mmHg 45%
16:00 +13°C° 0 mm 4 mps 739 mmHg 47%
17:00 +13°C° 0 mm 4 mps 739 mmHg 48%
18:00 +11°C° 0 mm 3 mps 739 mmHg 54%
19:00 +10°C° 0 mm 3 mps 740 mmHg 60%
20:00 +8°C° 0 mm 3 mps 740 mmHg 66%
21:00 +7°C° 0 mm 3 mps 740 mmHg 67%
22:00 +7°C° 0 mm 3 mps 740 mmHg 69%
23:00 +5°C° 0 mm 3 mps 741 mmHg 70%

Tomorrow, 11 April, Sunday

Time Temperature Precipitation Wind Pressure Humidity
00:00 +5°C° 0 mm 3 mps 741 mmHg 70%
01:00 +4°C° 0 mm 3 mps 741 mmHg 70%
02:00 +4°C° 0 mm 3 mps 741 mmHg 70%
03:00 +4°C° 0 mm 3 mps 741 mmHg 69%
04:00 +4°C° 0 mm 3 mps 741 mmHg 69%
05:00 +3°C° 0 mm 3 mps 741 mmHg 69%
06:00 +4°C° 0 mm 3 mps 741 mmHg 66%
07:00 +6°C° 0 mm 4 mps 741 mmHg 63%
08:00 +7°C° 0 mm 4 mps 742 mmHg 60%
09:00 +8°C° 0 mm 5 mps 742 mmHg 56%
10:00 +10°C° 0 mm 5 mps 742 mmHg 52%
11:00 +11°C° 0 mm 6 mps 742 mmHg 47%
12:00 +13°C° 0 mm 6 mps 742 mmHg 45%
13:00 +14°C° 0 mm 6 mps 742 mmHg 43%
14:00 +14°C° 0 mm 6 mps 741 mmHg 41%
15:00 +14°C° 0 mm 6 mps 741 mmHg 42%
16:00 +14°C° 0 mm 5 mps 741 mmHg 44%
17:00 +14°C° 0 mm 5 mps 740 mmHg 45%
18:00 +12°C° 0 mm 5 mps 741 mmHg 47%
19:00 +9°C° 0 mm 5 mps 741 mmHg 50%
20:00 +8°C° 0 mm 5 mps 741 mmHg 52%
21:00 +7°C° 0 mm 5 mps 741 mmHg 53%
22:00 +7°C° 0 mm 5 mps 741 mmHg 54%
23:00 +6°C° 0 mm 5 mps 741 mmHg 55%

Day after tomorrow, 12 April, Monday

Time Temperature Precipitation Wind Pressure Humidity
00:00 +6°C° 0 mm 4 mps 741 mmHg 56%
01:00 +5°C° 0 mm 4 mps 741 mmHg 58%
02:00 +5°C° 0 mm 4 mps 740 mmHg 59%
03:00 +5°C° 0 mm 4 mps 740 mmHg 60%
04:00 +5°C° 0 mm 4 mps 740 mmHg 61%
05:00 +4°C° 0 mm 4 mps 740 mmHg 62%
06:00 +5°C° 0 mm 4 mps 740 mmHg 62%
07:00 +6°C° 0 mm 4 mps 740 mmHg 61%
08:00 +7°C° 0 mm 4 mps 740 mmHg 60%
09:00 +8°C° 0 mm 4 mps 739 mmHg 57%
10:00 +10°C° 0 mm 5 mps 739 mmHg 53%
11:00 +13°C° 0 mm 5 mps 739 mmHg 50%
12:00 +14°C° 0 mm 5 mps 739 mmHg 48%
13:00 +15°C° 0 mm 4 mps 739 mmHg 46%
14:00 +17°C° 0 mm 4 mps 738 mmHg 44%
15:00 +17°C° 0 mm 4 mps 738 mmHg 46%
16:00 +17°C° 0 mm 4 mps 738 mmHg 47%
17:00 +17°C° 0 mm 3 mps 737 mmHg 48%
18:00 +14°C° 0 mm 3 mps 737 mmHg 52%
19:00 +13°C° 0 mm 3 mps 737 mmHg 56%
20:00 +11°C° 0 mm 3 mps 738 mmHg 60%
21:00 +11°C° 0 mm 3 mps 737 mmHg 58%
22:00 +11°C° 0 mm 3 mps 737 mmHg 56%
23:00 +10°C° 0 mm 3 mps 737 mmHg 55%

13 April, Tuesday

Time Temperature Precipitation Wind Pressure Humidity
00:00 +10°C° 0 mm 3 mps 737 mmHg 56%
01:00 +9°C° 0 mm 3 mps 737 mmHg 58%
02:00 +9°C° 0 mm 3 mps 737 mmHg 59%
03:00 +8°C° 0 mm 3 mps 737 mmHg 61%
04:00 +8°C° 0 mm 3 mps 737 mmHg 63%
05:00 +7°C° 0 mm 3 mps 736 mmHg 65%
06:00 +8°C° 0 mm 3 mps 736 mmHg 64%
07:00 +10°C° 0 mm 3 mps 736 mmHg 62%
08:00 +11°C° 0 mm 3 mps 736 mmHg 61%
09:00 +12°C° 0 mm 3 mps 736 mmHg 56%
10:00 +14°C° 0 mm 4 mps 736 mmHg 51%
11:00 +17°C° 0 mm 4 mps 736 mmHg 47%
12:00 +18°C° 0 mm 4 mps 736 mmHg 45%
13:00 +18°C° 0 mm 4 mps 736 mmHg 43%
14:00 +19°C° 0 mm 3 mps 735 mmHg 42%
15:00 +18°C° 0 mm 3 mps 735 mmHg 44%
16:00 +18°C° 0 mm 3 mps 735 mmHg 47%
17:00 +18°C° 0 mm 2 mps 734 mmHg 49%
18:00 +16°C° 0 mm 2 mps 734 mmHg 58%
19:00 +14°C° 0 mm 2 mps 734 mmHg 67%
20:00 +11°C° 0 mm 3 mps 734 mmHg 75%
21:00 +10°C° 0 mm 3 mps 734 mmHg 80%
22:00 +9°C° 0 mm 3 mps 734 mmHg 85%
23:00 +8°C° 0 mm 3 mps 734 mmHg 90%

14 April, Wednesday

Time Temperature Precipitation Wind Pressure Humidity
00:00 +8°C° 0 mm 3 mps 734 mmHg 90%
01:00 +7°C° 0 mm 3 mps 734 mmHg 90%
02:00 +7°C° 0 mm 3 mps 733 mmHg 91%
03:00 +7°C° 0.1 mm 3 mps 733 mmHg 91%
04:00 +5°C° 0.1 mm 4 mps 733 mmHg 91%
05:00 +5°C° 0.1 mm 4 mps 733 mmHg 92%
06:00 +4°C° 0.6 mm 4 mps 733 mmHg 92%
07:00 +3°C° 0.6 mm 4 mps 733 mmHg 93%
08:00 +2°C° 0.6 mm 5 mps 733 mmHg 94%
09:00 +1°C° 0.8 mm 5 mps 733 mmHg 94%
10:00 +1°C° 0.8 mm 5 mps 733 mmHg 95%
11:00 0°C° 0.8 mm 5 mps 733 mmHg 95%
12:00 0°C° 0.8 mm 5 mps 733 mmHg 95%
13:00 0°C° 0.8 mm 5 mps 733 mmHg 96%
14:00 -1°C° 0.8 mm 5 mps 733 mmHg 96%
15:00 -1°C° 1 mm 5 mps 732 mmHg 97%
16:00 -1°C° 1 mm 4 mps 732 mmHg 97%
17:00 -1°C° 1 mm 4 mps 732 mmHg 98%
18:00 -1°C° 0.4 mm 4 mps 732 mmHg 98%
19:00 -1°C° 0.4 mm 4 mps 732 mmHg 98%
20:00 -1°C° 0.4 mm 4 mps 732 mmHg 98%
21:00 -1°C° 0.7 mm 4 mps 732 mmHg 98%
22:00 -1°C° 0.7 mm 4 mps 731 mmHg 98%
23:00 -1°C° 0.7 mm 4 mps 731 mmHg 98%

15 April, Thursday

Time Temperature Precipitation Wind Pressure Humidity
00:00 -1°C° 0.7 mm 4 mps 731 mmHg 98%
01:00 -1°C° 0.7 mm 4 mps 731 mmHg 98%
02:00 -1°C° 0.7 mm 4 mps 730 mmHg 98%
03:00 -1°C° 1 mm 4 mps 730 mmHg 98%
04:00 -1°C° 1 mm 4 mps 730 mmHg 98%
05:00 -2°C° 1 mm 5 mps 730 mmHg 98%
06:00 -2°C° 0.8 mm 5 mps 730 mmHg 98%
07:00 -2°C° 0.8 mm 5 mps 730 mmHg 98%
08:00 -2°C° 0.8 mm 5 mps 730 mmHg 98%
09:00 -3°C° 0.5 mm 6 mps 730 mmHg 98%
10:00 -2°C° 0.5 mm 6 mps 731 mmHg 98%
11:00 -2°C° 0.5 mm 6 mps 731 mmHg 98%
12:00 -2°C° 0.4 mm 6 mps 731 mmHg 98%
13:00 -2°C° 0.4 mm 6 mps 731 mmHg 98%
14:00 -2°C° 0.4 mm 7 mps 731 mmHg 98%
15:00 -2°C° 0.6 mm 7 mps 731 mmHg 98%
16:00 -3°C° 0.6 mm 7 mps 731 mmHg 98%
17:00 -3°C° 0.6 mm 7 mps 731 mmHg 98%
18:00 -3°C° 1.1 mm 7 mps 731 mmHg 98%
19:00 -3°C° 1.1 mm 7 mps 731 mmHg 98%
20:00 -4°C° 1.1 mm 8 mps 731 mmHg 98%
21:00 -3°C° 1.3 mm 7 mps 731 mmHg 98%
22:00 -3°C° 1.3 mm 7 mps 730 mmHg 98%
23:00 -3°C° 1.3 mm 7 mps 730 mmHg 98%
Show more